Weather Roundup
Issued by NWS Chicago, IL

Home | Current Version | Previous Version | Graphics & Text | Print | Product List | Glossary On
Versions: 1 2 3 4 5 6 7 8 9 10 11 12 13 14 15 16 17 18 19 20 21 22 23 24 25 26 27 28 29 30 31 32 33 34 35 36 37 38 39 40 41 42 43 44 45 46 47 48 49 50
000
NZUS59 KLOT 031121
HRRLOT

CHICAGO AREA WEATHER ROUNDUP
NATIONAL WEATHER SERVICE CHICAGO/ROMEOVILLE IL
600 AM CDT FRI JUL 03 2015

NOTE: "FAIR" INDICATES FEW OR NO CLOUDS BELOW 12,000 FEET WITH NO
SIGNIFICANT WEATHER AND/OR OBSTRUCTIONS TO VISIBILITY.

* THESE STATIONS ARE NOT UNDER NWS QUALITY CONTROL. THEY ALSO MAY NOT
  REPORT WEATHER SUCH AS PRECIPITATION OR FOG.

ILZ005-006-012>014-019>023-031200-
NORTHEAST ILLINOIS

CITY           SKY/WX    TMP DP  RH WIND       PRES   REMARKS
OHARE          CLOUDY    57  52  83 N6        29.96S
MIDWAY         MOCLDY    62  57  83 N3        29.96R
AURORA         MOCLDY    56  49  77 NE3       29.97R
LANSING*       MOCLDY    60  54  79 E3        29.96R
JOLIET*        CLOUDY    59  55  87 CALM      29.96R
WAUKEGAN       MOCLDY    55  52  89 CALM      29.98S
DUPAGE AIRPORT MOCLDY    53  50  89 N5        29.96S
WHEELING       CLOUDY    55  51  86 CALM      29.99R
KANKAKEE*      CLOUDY    59  57  93 NE3       29.95R
MORRIS*        MOCLDY    57  52  85 NE3       29.93R
LEWIS AIRPORT* MOCLDY    56  53  88 NE5       29.96R
NORTHERLY IS     N/A     61  56  83 E2          N/A
$$

WIZ051-052-058>065-066-070>072-031200-
SOUTHEAST WISCONSIN

CITY           SKY/WX    TMP DP  RH WIND       PRES   REMARKS
MILWAUKEE      PTCLDY    54  47  77 CALM      30.00S
KENOSHA*       MOCLDY    51  48  89 CALM      29.99S
RACINE*        PTCLDY    53  49  86 N3        30.01R
BURLINGTON     MOCLDY    47  46  97 CALM      29.99S
WAUKESHA       CLEAR     48  45  87 CALM      30.01R
WEST BEND      PTCLDY    46  45  93 CALM      30.01R
$$

INZ001>003-010>013-019-020-031200-
NORTHWEST INDIANA

CITY           SKY/WX    TMP DP  RH WIND       PRES   REMARKS
GARY*          CLOUDY    61  57  88 CALM      29.96S
MICHIGAN CITY* NOT AVBL
RENSSELAER*    NOT AVBL
VALPARAISO     CLOUDY    58  54  86 NE5       29.96S
$$

LMZ740>746-031200-
SOUTHERN LAKE MICHIGAN

STATION/POSITION TIME  SKY/WX   TEMP WIND        PRES    VSBY
                                AIR  DIR/SP/G
                 (UTC)          (F)  (DEG/KT/KT) (MB)    (MI)
HARRISON CRIB    1100            61   80/  4/  5   N/A
BURNHAM HARBOR   1100            61   50/  3/  5   N/A
CALUMET HARBOR   1100            63   60/  4/  5   N/A
BURNS HARBOR     1000            63  100/  7/ 12 1014.9S
MICHIGAN CITY    1100            60   90/  8/ 13   N/A
$$

ABBREVIATIONS USED IN REMARKS
   TC - TEMPERATURE IN CELSIUS
  WCI - WIND CHILL INDEX
   HX - HEAT INDEX
  VSB - VISIBILITY
$$


USA.gov is the U.S. government's official web portal to all federal, state and local government web resources and services.